{"data":{"norad_id":46173,"intl_designator":"2020-057BJ","name":"STARLINK-1640","alt_names":[],"object_type":"PAYLOAD","status":"ACTIVE","operator":null,"country":"US","launch_date":"2020-08-18","launch_site_code":"AFETR","launch_vehicle":null,"mission":null,"orbit_class":"UNKNOWN","rcs_meters":null,"size_class":null,"mass_kg":null,"dimensions":null,"purposes":["comms"],"wikipedia_slug":null,"has_3d_model":false,"image_url":null,"decayed_at":null,"tle_current":{"epoch":"2026-05-25T02:35:44.183328Z","epoch_age_seconds":66499,"freshness":"FRESH","line1":"1 46173U 20057BJ  26145.10815027  .00091933  00000+0  78074-3 0  9990","line2":"2 46173  53.0430 285.7283 0002074   1.2282 358.8739 15.68902247318257","mean_motion":15.68902247,"eccentricity":0.0002074,"inclination_deg":53.043,"raan_deg":285.7283,"arg_perigee_deg":1.2282,"mean_anomaly_deg":358.8739,"bstar":0.00078074,"rev_number":31825,"period_min":91.78392106669,"perigee_km":360.64130943491,"apogee_km":363.43713453178,"semimajor_km":6740.1762219833,"source":"CELESTRAK","updated_at":"2026-05-25T13:38:16.469348Z"}}}